Regional Weather Roundup
Issued by NWS

Home | Current Version | Previous Version | Graphics & Text | Print | Product List | Glossary On
Versions: 1 2 3 4 5 6 7 8 9 10 11 12 13 14 15 16 17 18 19 20 21 22 23 24 25 26 27 28 29 30 31 32 33 34 35 36 37 38 39 40 41 42 43 44 45 46 47 48 49 50
000
ASUS43 KOAX 251402
RWRNE

WEATHER ROUNDUP FOR NEBRASKA
NATIONAL WEATHER SERVICE OMAHA NE
900 AM CDT WED APR 25 2018

NOTES: SATELLITE DATA IS BEING USED TO AUGMENT CLOUD COVER ABOVE
       12000 FEET.
       "FAIR" INDICATES FEW OR NO CLOUDS BELOW 12,000 FEET WITH NO
       SIGNIFICANT WEATHER AND/OR OBSTRUCTIONS TO VISIBILITY.


NEZ001>004-019>022-054>056-251500-
NEBRASKA PANHANDLE

CITY           SKY/WX    TMP DP  RH WIND       PRES   REMARKS
SCOTTSBLUFF    SUNNY     35  31  85 CALM      30.34S
ALLIANCE       SUNNY     34  31  88 W6        30.32S WCI  29
CHADRON        SUNNY     36  30  79 SW7       30.31F WCI  30
GORDON         FAIR      39  30  70 W5        30.31S
KIMBALL        SUNNY     34  31  88 W8        30.34S WCI  27
SIDNEY         SUNNY     35  30  82 W8        30.34F WCI  29
$$

NEZ057>060-069>072-079>082-251500-
SOUTHWEST NEBRASKA

CITY           SKY/WX    TMP DP  RH WIND       PRES   REMARKS
NORTH PLATTE   SUNNY     43  34  70 N8        30.33S
IMPERIAL       SUNNY     40  31  70 W12       30.35S WCI  33
LEXINGTON      MOSUNNY   42  36  79 N7        30.32F
MCCOOK         PTSUNNY   41  34  76 NW12      30.34S
OGALLALA       SUNNY     42  32  67 NW13      30.34S
$$

NEZ005>010-023>029-035>040-094-251500-
NORTH CENTRAL NEBRASKA

CITY           SKY/WX    TMP DP  RH WIND       PRES   REMARKS
VALENTINE      SUNNY     40  31  70 W9        30.31F WCI  34
AINSWORTH      SUNNY     40  35  82 W6        30.31F
BROKEN BOW     PTSUNNY   43  36  76 N9        30.31S
O`NEILL        SUNNY     44  38  79 NW6       30.31F
ORD            MOSUNNY   42  38  85 NW9       30.30S
THEDFORD       SUNNY     41  34  77 NW5       30.32F
$$

NEZ041-046>049-061>064-073>077-083>087-251500-
SOUTH CENTRAL NEBRASKA

CITY           SKY/WX    TMP DP  RH WIND       PRES   REMARKS
GRAND ISLAND   CLOUDY    42  35  76 N16       30.29F
AURORA         LGT RAIN  42  38  88 N15       30.28F
HASTINGS       CLOUDY    41  38  89 N15       30.29F
HEBRON         RAIN      42  40  91 N8        30.27S
HOLDREGE       CLOUDY    40  37  89 N14       30.31S WCI  32
KEARNEY        CLOUDY    41  33  73 N15       30.31S
YORK             N/A     41  41 100 N12       30.27F
$$

NEZ011>018-030>034-042>045-251500-
NORTHEAST NEBRASKA

CITY           SKY/WX    TMP DP  RH WIND       PRES   REMARKS
NORFOLK        CLOUDY    42  36  79 N9        30.26F
ALBION         CLOUDY    42  38  85 NW9       30.29F
BLAIR          LGT RAIN  42  38  87 N9        30.25R
COLUMBUS       CLOUDY    42  37  82 N9        30.29
FREMONT        LGT RAIN  44  39  83 NW7       30.28R
TEKAMAH        CLOUDY    43  37  79 N12       30.26F
WAYNE          CLOUDY    43  38  82 N10       30.29R
$$

NEZ050>053-065>068-078-088>093-251500-
SOUTHEAST NEBRASKA

CITY           SKY/WX    TMP DP  RH WIND       PRES   REMARKS
LINCOLN        LGT RAIN  44  40  85 N13       30.27S
OMAHA EPPLEY   LGT RAIN  43  40  89 N12       30.25R
BEATRICE       MIX PCPN  43  42  95 N15       30.25S
FALLS CITY     LGT RAIN  46  46 100 N12       30.20R FOG
NEBRASKA CITY  LGT RAIN  44  44 100 N10       30.23S
PLATTSMOUTH    LGT RAIN  44  41  89 N10       30.24R
$$

NEZ044-045-051>053-067-251500-
OMAHA AREA

CITY           SKY/WX    TMP DP  RH WIND       PRES   REMARKS
OMAHA EPPLEY   LGT RAIN  43  40  89 N12       30.25R
BLAIR          LGT RAIN  42  38  87 N9        30.25R
FREMONT        LGT RAIN  44  39  83 NW7       30.28R
MILLARD        LGT RAIN  44  40  85 N8        30.26S
OFFUTT AFB     LGT RAIN  44  40  87 N10       30.24R
PLATTSMOUTH    LGT RAIN  44  41  89 N10       30.24R
WAHOO          RAIN      44  40  85 NW10      30.27S
$$




USA.gov is the U.S. government's official web portal to all federal, state and local government web resources and services.